Date String (YYYY-MM-DD hh:mm:ss) UTC,Instrument flags,Ambient pressure (hPa),Sample flow (lpm),Bypass flow (lpm),Sample temperature (°C),Ambient temperature (°C),ASC tube jacket temperature (°C),LED temperature (°C),Box temperature (°C),Sample RH (%),Span deviation,Mass concentration (μg/m³),Mass concentration (μg/m³),Mass concentration (μg/m³)
DateTimeUTC,F1_M11,P_M11,Q1_M11,Q2_M11,T1_M11,T2_M11,T3_M11,T4_M11,T5_M11,U1_M11,ZSPAN_M11,X0_M11,X2_M11,X1_M11
2021-09-21 00:00:00,,0829.8,5.00,0.00,29.4,28.3,00.0,38.5,31.1,11.5,0000.0,0016.46,0003.40,0001.96
2021-09-21 00:01:00,,0829.8,5.00,0.00,29.4,28.4,00.0,38.5,31.1,11.6,0000.0,0017.28,0003.41,0001.96
2021-09-21 00:02:00,,0829.8,4.99,0.00,29.4,28.4,00.0,38.5,31.1,11.6,0000.0,0017.94,0003.42,0001.95
2021-09-21 00:03:00,,0829.8,5.00,0.00,29.4,28.5,00.0,38.5,31.1,11.7,0000.0,0018.61,0003.46,0001.94
2021-09-21 00:04:00,,0829.8,5.00,0.00,29.4,28.5,00.0,38.5,31.1,11.7,0000.0,0018.20,0003.49,0001.95
2021-09-21 00:05:00,,0829.9,5.00,0.00,29.4,28.5,00.0,38.5,31.2,11.9,0000.0,0017.86,0003.58,0001.97
2021-09-21 00:06:00,,0829.8,5.00,0.00,29.4,28.6,00.0,38.5,31.2,11.8,0000.0,0017.70,0003.64,0001.98
2021-09-21 00:07:00,,0829.9,4.99,0.00,29.4,28.6,00.0,38.5,31.2,11.6,0000.0,0017.86,0003.71,0002.00
2021-09-21 00:08:00,,0829.8,4.99,0.00,29.4,28.6,00.0,38.5,31.2,11.6,0000.0,0017.85,0003.77,0002.01
2021-09-21 00:09:00,,0829.8,5.01,0.00,29.4,28.6,00.0,38.5,31.2,11.6,0000.0,0015.70,0003.74,0002.00
2021-09-21 00:10:00,,0829.9,5.00,0.00,29.4,28.7,00.0,38.6,31.2,11.6,0000.0,0014.62,0003.72,0002.01
2021-09-21 00:11:00,,0829.9,5.00,0.00,29.4,28.7,00.0,38.6,31.2,11.5,0000.0,0015.84,0003.69,0001.99
2021-09-21 00:12:00,,0829.9,4.99,0.00,29.5,28.7,00.0,38.6,31.2,11.8,0000.0,0015.10,0003.71,0001.99
2021-09-21 00:13:00,,0830.1,5.00,0.00,29.5,28.7,00.0,38.6,31.3,11.8,0000.0,0015.86,0003.71,0002.00
2021-09-21 00:14:00,,0829.9,5.00,0.00,29.5,28.7,00.0,38.6,31.3,11.7,0000.0,0015.32,0003.69,0002.00
2021-09-21 00:15:00,,0829.9,5.00,0.00,29.5,28.7,00.0,38.6,31.3,11.7,0000.0,0015.23,0003.67,0001.99
2021-09-21 00:16:00,,0829.8,5.00,0.00,29.5,28.7,00.0,38.6,31.2,11.2,0000.0,0015.10,0003.56,0001.98
2021-09-21 00:17:00,,0829.8,5.00,0.00,29.5,28.7,00.0,38.6,31.2,11.3,0000.0,0015.59,0003.52,0001.96
2021-09-21 00:18:00,,0829.9,5.00,0.00,29.5,28.7,00.0,38.6,31.2,11.2,0000.0,0015.87,0003.51,0001.94
2021-09-21 00:19:00,,0830.0,4.99,0.00,29.5,28.7,00.0,38.6,31.2,11.2,0000.0,0015.80,0003.51,0001.93
2021-09-21 00:20:00,,0830.0,5.01,0.00,29.4,28.7,00.0,38.6,31.1,11.3,0000.0,0016.15,0003.52,0001.92
2021-09-21 00:21:00,,0830.1,5.00,0.00,29.4,28.7,00.0,38.6,31.1,11.3,0000.0,0016.11,0003.54,0001.90
2021-09-21 00:22:00,,0830.1,4.99,0.00,29.4,28.7,00.0,38.6,31.1,11.2,0000.0,0014.64,0003.56,0001.90
2021-09-21 00:23:00,,0830.1,5.00,0.00,29.4,28.7,00.0,38.6,31.2,11.2,0000.0,0015.07,0003.56,0001.89
2021-09-21 00:24:00,,0830.1,5.00,0.00,29.4,28.6,00.0,38.6,31.1,10.7,0000.0,0015.00,0003.53,0001.88
2021-09-21 00:25:00,,0830.1,5.00,0.00,29.4,28.7,00.0,38.6,31.1,11.2,0000.0,0015.58,0003.51,0001.86
2021-09-21 00:26:00,,0830.1,5.00,0.00,29.4,28.7,00.0,38.6,31.1,11.4,0000.0,0015.87,0003.56,0001.86
2021-09-21 00:27:00,,0830.1,5.02,0.00,29.4,28.7,00.0,38.6,31.2,10.8,0000.0,0016.11,0003.62,0001.86
2021-09-21 00:28:00,,0830.1,4.99,0.00,29.4,28.7,00.0,38.6,31.2,10.1,0000.0,0016.39,0003.60,0001.85
2021-09-21 00:29:00,,0830.1,5.00,0.00,29.4,28.7,00.0,38.6,31.1,10.3,0000.0,0015.87,0003.54,0001.83
2021-09-21 00:30:00,,0830.1,5.00,0.00,29.4,28.7,00.0,38.6,31.1,10.7,0000.0,0016.00,0003.49,0001.82
2021-09-21 00:31:00,,0830.1,5.01,0.00,29.4,28.7,00.0,38.6,31.2,10.7,0000.0,0015.54,0003.47,0001.82
2021-09-21 00:32:00,,0830.2,4.99,0.00,29.4,28.7,00.0,38.6,31.1,10.4,0000.0,0015.17,0003.44,0001.82
2021-09-21 00:33:00,,0830.2,5.00,0.00,29.4,28.7,00.0,38.6,31.1,10.4,0000.0,0015.05,0003.47,0001.82
2021-09-21 00:34:00,,0830.2,5.00,0.00,29.4,28.7,00.0,38.6,31.2,10.4,0000.0,0014.02,0003.42,0001.82
2021-09-21 00:35:00,,0830.3,5.00,0.00,29.4,28.7,00.0,38.6,31.1,10.6,0000.0,0013.03,0003.40,0001.82
2021-09-21 00:36:00,,0830.3,5.00,0.00,29.4,28.7,00.0,38.6,31.1,10.5,0000.0,0011.39,0003.35,0001.81
2021-09-21 00:37:00,,0830.3,5.00,0.00,29.4,28.7,00.0,38.6,31.1,10.5,0000.0,0011.97,0003.28,0001.79
2021-09-21 00:38:00,,0830.3,5.01,0.00,29.4,28.7,00.0,38.6,31.1,10.7,0000.0,0013.40,0003.26,0001.80
2021-09-21 00:39:00,,0830.3,4.99,0.00,29.4,28.7,00.0,38.6,31.1,10.8,0000.0,0012.52,0003.24,0001.79
2021-09-21 00:40:00,,0830.3,5.01,0.00,29.4,28.7,00.0,38.6,31.1,10.5,0000.0,0012.76,0003.27,0001.79
2021-09-21 00:41:00,,0830.4,5.00,0.00,29.4,28.6,00.0,38.6,31.1,10.6,0000.0,0012.92,0003.28,0001.79
2021-09-21 00:42:00,,0830.3,5.00,0.00,29.4,28.6,00.0,38.6,31.1,10.6,0000.0,0013.69,0003.26,0001.79
2021-09-21 00:43:00,,0830.4,5.00,0.00,29.4,28.6,00.0,38.6,31.1,10.7,0000.0,0015.46,0003.25,0001.78
2021-09-21 00:44:00,,0830.4,5.00,0.00,29.4,28.6,00.0,38.6,31.1,10.8,0000.0,0016.18,0003.20,0001.78
2021-09-21 00:45:00,,0830.5,4.99,0.00,29.4,28.7,00.0,38.6,31.1,10.7,0000.0,0016.95,0003.23,0001.78
2021-09-21 00:46:00,,0830.4,5.00,0.00,29.4,28.6,00.0,38.6,31.1,10.7,0000.0,0018.29,0003.26,0001.77
2021-09-21 00:47:00,,0830.4,5.00,0.00,29.4,28.6,00.0,38.6,31.1,10.9,0000.0,0019.37,0003.32,0001.79
2021-09-21 00:48:00,,0830.4,5.00,0.00,29.4,28.6,00.0,38.6,31.1,10.8,0000.0,0017.78,0003.33,0001.80
2021-09-21 00:49:00,,0830.4,5.00,0.00,29.4,28.6,00.0,38.6,31.1,10.7,0000.0,0015.77,0003.30,0001.78
2021-09-21 00:50:00,,0830.4,5.01,0.00,29.3,28.6,00.0,38.5,31.1,10.8,0000.0,0015.74,0003.34,0001.79
2021-09-21 00:51:00,,0830.5,5.01,0.00,29.3,28.5,00.0,38.5,31.0,10.8,0000.0,0015.56,0003.34,0001.79
2021-09-21 00:52:00,,0830.4,5.00,0.00,29.3,28.5,00.0,38.5,31.0,10.8,0000.0,0015.64,0003.34,0001.79
2021-09-21 00:53:00,,0830.4,5.00,0.00,29.3,28.4,00.0,38.5,31.0,10.8,0000.0,0016.18,0003.38,0001.79
2021-09-21 00:54:00,,0830.4,5.01,0.00,29.3,28.4,00.0,38.5,30.9,10.7,0000.0,0015.19,0003.41,0001.79
2021-09-21 00:55:00,,0830.4,5.00,0.00,29.2,28.4,00.0,38.5,30.9,10.7,0000.0,0014.38,0003.42,0001.78
2021-09-21 00:56:00,,0830.4,4.99,0.00,29.2,28.4,00.0,38.5,30.8,10.9,0000.0,0013.70,0003.44,0001.78
2021-09-21 00:57:00,,0830.5,4.99,0.00,29.2,28.4,00.0,38.5,30.9,11.0,0000.0,0012.21,0003.43,0001.78
2021-09-21 00:58:00,,0830.5,5.00,0.00,29.2,28.4,00.0,38.4,30.9,11.0,0000.0,0011.06,0003.41,0001.76
2021-09-21 00:59:00,,0830.5,4.99,0.00,29.2,28.3,00.0,38.4,30.8,11.0,0000.0,0011.43,0003.44,0001.77
